[[{"header":{"parameterUnit":"m.s-1","parameterCategory":1,"la1":30.2991,"la2":30.254,"lo1":-89.0895,"lo2":-89.0444,"dy":0.0017,"dx":0.0017,"nx":28,"ny":28,"refTime":"2025-01-29T09:00:00:Z","depth":0,"parameterNumber":2,"parameterNumberName":"U-component_of_WINDS"},"data":[0,0,0,0,0,0,0,0,0,0,0,0,0,0,0,0,0,0,0,0,0,0,0,0,0,0,0,0,0,0,0,0,0,0,0,0,0,0,0,0,0,0,0,0,0,0,0,0,0,0,0,0,0,0,0,0,0,0,-2.7129,-2.713,0,-2.7159,-2.716,-2.716,-2.7092,-2.7089,-2.7087,-2.7085,-2.7118,-2.7121,-2.7124,0,0,0,0,0,0,0,0,0,0,0,0,0,-2.7015,-2.7017,-2.7129,-2.713,-2.713,-2.7159,-2.716,-2.716,-2.7092,-2.7089,-2.7087,-2.7084,-2.7117,-2.7121,-2.7124,0,0,0,0,0,0,0,0,0,0,0,0,0,-2.7057,-2.7018,-2.7129,-2.7099,-2.7097,-2.7159,-2.716,-2.716,-2.7093,-2.7089,-2.7086,-2.7083,-2.7116,-2.7121,-2.7125,-2.7218,0,0,-2.7138,-2.714,0,0,0,0,0,0,0,0,-2.7055,-2.7061,-2.7103,-2.7102,-2.7099,-2.7118,-2.7131,-2.718,-2.7093,-2.7094,-2.7085,-2.7081,-2.7121,-2.7125,-2.7138,-2.7219,-2.7221,-2.7139,-2.7141,-2.7143,-2.7144,0,0,0,0,0,0,0,-2.7052,-2.7059,-2.7141,-2.7104,-2.7102,-2.7085,-2.7088,-2.714,-2.7126,-2.7094,-2.7089,-2.7094,-2.7119,-2.7134,-2.7138,-2.7221,-2.7139,-2.7142,-2.7145,-2.7147,-2.7381,-2.7384,0,0,0,0,0,0,-2.7052,-2.7057,-2.714,-2.7142,-2.7068,-2.709,-2.7093,-2.7116,-2.7125,-2.7123,-2.7096,-2.709,-2.7128,-2.7133,-2.7139,-2.7248,-2.7143,-2.7147,-2.715,-2.7377,-2.7382,-2.7386,0,0,0,0,0,0,-2.705,-2.706,-2.7139,-2.7098,-2.7107,-2.7096,-2.7122,-2.7118,-2.7132,-2.7127,-2.7124,-2.7114,-2.7126,-2.7133,-2.7199,-2.7249,-2.7149,-2.7153,-2.7373,-2.7379,-2.7384,-2.7468,0,0,0,0,0,0,-2.7047,-2.706,-2.7095,-2.71,-2.711,-2.7198,-2.7125,-2.7121,-2.714,-2.7132,-2.7142,-2.7141,-2.7124,-2.7192,-2.7203,-2.7253,-2.7157,-2.7369,-2.7376,-2.7382,-2.7461,-2.7476,-2.7488,0,0,0,0,0,-2.7043,-2.7118,-2.7097,-2.7107,-2.7153,-2.7201,-2.7206,-2.7184,-2.7144,-2.7179,-2.7176,-2.7141,-2.7242,-2.72,-2.7211,-2.7263,-2.7365,-2.7374,-2.7381,-2.7455,-2.7473,-2.7488,0,0,0,0,0,0,-2.7119,-2.7118,-2.7094,-2.7173,-2.7187,-2.7189,-2.7232,-2.7204,-2.7231,-2.7223,-2.7195,-2.7198,-2.7269,-2.7273,-2.7226,-2.7354,-2.7297,-2.7307,-2.7348,-2.7366,-2.7379,-2.7377,-2.716,0,0,0,0,0,-2.7145,-2.7184,-2.718,-2.725,-2.7258,-2.7244,-2.7264,-2.7246,-2.726,-2.7266,-2.7268,-2.7284,-2.7319,-2.7342,-2.7375,-2.7461,-2.7463,-2.7503,-2.7516,-2.7528,-2.7537,-2.7583,-2.7601,-2.7412,-2.7412,-2.7412,0,0,-2.7199,-2.7203,-2.7229,-2.7265,-2.7274,-2.7315,-2.725,-2.7296,-2.7326,-2.7273,-2.7335,-2.7337,-2.7353,-2.743,-2.7463,-2.7435,-2.759,-2.7538,-2.7547,-2.755,-2.7593,-2.7611,-2.7627,-2.7417,-2.7416,-2.7416,0,0,-2.7318,-2.7325,-2.7383,-2.7393,-2.7408,-2.7398,-2.7412,-2.7419,-2.7417,-2.7479,-2.744,-2.7476,-2.7538,-2.755,-2.7565,-2.7689,-2.7658,-2.7701,-2.7773,-2.7818,-2.7833,-2.7846,-2.789,-2.7906,-2.771,-2.7711,-2.7711,0,-2.7383,-2.7442,-2.7417,-2.7465,-2.7483,-2.7436,-2.7495,-2.7507,-2.7532,-2.7545,-2.7513,-2.7588,-2.7596,-2.7675,-2.7705,-2.7719,-2.7734,-2.7699,-2.7833,-2.7846,-2.7857,-2.7899,-2.7916,-2.7716,-2.7715,-2.7715,-2.7714,0,-2.7522,-2.7564,-2.7609,-2.7633,-2.7656,-2.771,-2.7693,-2.7719,-2.7699,-2.7693,-2.7757,-2.7764,-2.7797,-2.7814,-2.7796,-2.7891,-2.7873,-2.7837,-2.7779,-2.7881,-2.792,-2.7936,-2.7723,-2.7721,-2.772,-2.7718,0,0,-2.7689,-2.7698,-2.7715,-2.7726,-2.7738,-2.7771,-2.7823,-2.7854,-2.7877,-2.7896,-2.7939,-2.7992,-2.7959,-2.7976,-2.7958,-2.7998,-2.8096,-2.7958,-2.7958,-2.7983,-2.8202,-2.8228,-2.8247,-2.8076,-2.8079,-2.8081,-2.82,0,-2.7806,-2.7894,-2.7873,-2.7961,-2.8,-2.7956,-2.8002,-2.8015,-2.8011,-2.8044,-2.804,-2.8078,-2.8032,-2.8041,-2.8079,-2.8076,-2.814,-2.8068,-2.8116,-2.8118,-2.8113,-2.8267,-2.8295,-2.8407,-2.8215,-2.8218,-2.822,0,-2.7954,-2.7978,-2.807,-2.8076,-2.8091,-2.8132,-2.8159,-2.8191,-2.8206,-2.82,-2.8219,-2.8194,-2.8246,-2.8188,-2.826,-2.8211,-2.823,-2.8232,-2.8236,-2.8239,-2.8174,-2.8274,-2.8442,-2.8458,-2.8243,-2.8241,-2.824,0,-2.8066,-2.8121,-2.8183,-2.8193,-2.8203,-2.8233,-2.8238,-2.8249,-2.8269,-2.8294,-2.8306,-2.8337,-2.8353,-2.8378,-2.8362,-2.8321,-2.8437,-2.8377,-2.8433,-2.8434,-2.8459,-2.8458,-2.8632,-2.8473,-2.8472,-2.8472,-2.8472,0,-2.8199,-2.8257,-2.8234,-2.8272,-2.8335,-2.8311,-2.8374,-2.8375,-2.8385,-2.8423,-2.8388,-2.8425,-2.8401,-2.8436,-2.8424,-2.8485,-2.8493,-2.8491,-2.8487,-2.8493,-2.8494,-2.8505,-2.8496,-2.8476,-2.8475,-2.8475,-2.8474,0,-2.8335,-2.8321,-2.8386,-2.8389,-2.8392,-2.8438,-2.8441,-2.8477,-2.8471,-2.8519,-2.8529,-2.852,-2.8559,-2.8545,-2.8588,-2.8579,-2.8657,-2.8644,-2.8652,-2.8648,-2.8705,-2.87,-2.8892,-2.8916,-2.8742,-2.8744,-2.8745,0,-2.842,-2.8463,-2.8471,-2.8493,-2.8501,-2.8538,-2.8558,-2.8536,-2.8559,-2.8579,-2.8612,-2.8648,-2.8676,-2.8741,-2.8738,-2.877,-2.8756,-2.8822,-2.8761,-2.8767,-2.8757,-2.8754,-2.8758,-2.8834,-2.8836,-2.8837,-2.8839,0,-2.8572,-2.8564,-2.8594,-2.8622,-2.8647,-2.8669,-2.8687,-2.8708,-2.8687,-2.8714,-2.8753,-2.8775,-2.8818,-2.8854,-2.8883,-2.8889,-2.8861,-2.8858,-2.8872,-2.8879,-2.8882,-2.8881,-2.8684,-2.8853,-2.8852,-2.8851,-2.885,-2.8849,-2.8685,-2.8721,-2.8732,-2.8767,-2.8778,-2.8797,-2.883,-2.8828,-2.886,-2.8892,-2.8878,-2.8923,-2.8937,-2.8973,-2.8984,-2.9019,-2.8994,-2.9015,-2.9021,-2.9026,-2.9033,-2.8877,-2.9025,-2.9024,-2.9024,-2.9023,-2.9023,0,-2.8835,-2.884,-2.8872,-2.8899,-2.8926,-2.8897,-2.8916,-2.8941,-2.8981,-2.8996,-2.9024,-2.9069,-2.9104,-2.9104,-2.9137,-2.9166,-2.9154,-2.9175,-2.9172,-2.9174,-2.9054,-2.9038,-2.9184,-2.9184,-2.9184,-2.9184,-2.9184,-2.9184,-2.8916,-2.8975,-2.8968,-2.9034,-2.9039,-2.9082,-2.9095,-2.9112,-2.9124,-2.9176,-2.9204,-2.9204,-2.9213,-2.9247,-2.9278,-2.9277,-2.929,-2.9317,-2.9311,-2.9199,-2.9183,-2.9167,-2.9152,-2.932,-2.932,-2.9428,-2.9429,-2.943]},{"header":{"parameterUnit":"m.s-1","parameterCategory":1,"la1":30.2991,"la2":30.254,"lo1":-89.0895,"lo2":-89.0444,"dy":0.0017,"dx":0.0017,"nx":28,"ny":28,"refTime":"2025-01-29T09:00:00:Z","depth":0,"parameterNumber":3,"parameterNumberName":"V-component_of_WINDS"},"data":[0,0,0,0,0,0,0,0,0,0,0,0,0,0,0,0,0,0,0,0,0,0,0,0,0,0,0,0,0,0,0,0,0,0,0,0,0,0,0,0,0,0,0,0,0,0,0,0,0,0,0,0,0,0,0,0,0,0,0.1701,0.1701,0,0.1764,0.1765,0.1765,0.1784,0.1783,0.1783,0.1783,0.1851,0.1853,0.1855,0,0,0,0,0,0,0,0,0,0,0,0,0,0.1599,0.1601,0.17,0.1701,0.1702,0.1764,0.1765,0.1766,0.1784,0.1783,0.1783,0.1783,0.185,0.1852,0.1855,0,0,0,0,0,0,0,0,0,0,0,0,0,0.1651,0.1602,0.17,0.1719,0.1721,0.1764,0.1765,0.1766,0.1784,0.1783,0.1783,0.1782,0.1849,0.1852,0.1855,0.1885,0,0,0.1865,0.1866,0,0,0,0,0,0,0,0,0.1648,0.1655,0.1715,0.1717,0.172,0.1765,0.1754,0.1806,0.1784,0.176,0.1783,0.1782,0.1823,0.1828,0.1841,0.1889,0.1891,0.1865,0.1867,0.1869,0.1869,0,0,0,0,0,0,0,0.1644,0.1652,0.1726,0.1716,0.1719,0.1725,0.1732,0.1764,0.1794,0.1762,0.1764,0.1771,0.1824,0.1838,0.1843,0.1892,0.1865,0.1868,0.187,0.1871,0.197,0.1971,0,0,0,0,0,0,0.1637,0.1649,0.1724,0.1728,0.1682,0.1727,0.1735,0.1751,0.1793,0.1799,0.1771,0.1771,0.1833,0.1839,0.1845,0.1885,0.1869,0.1872,0.1873,0.1969,0.197,0.1971,0,0,0,0,0,0,0.1635,0.1644,0.1721,0.1689,0.1699,0.1729,0.1748,0.1753,0.1767,0.18,0.1806,0.178,0.1833,0.1841,0.1876,0.1888,0.1873,0.1876,0.1969,0.197,0.1971,0.1964,0,0,0,0,0,0,0.1632,0.1643,0.1653,0.1689,0.1701,0.1749,0.1749,0.1755,0.1772,0.1773,0.181,0.1815,0.1833,0.1871,0.1879,0.1892,0.1878,0.1968,0.1969,0.197,0.1963,0.1964,0.1966,0,0,0,0,0,0.1628,0.1649,0.1654,0.1663,0.1714,0.175,0.1757,0.1776,0.1773,0.1785,0.1806,0.1814,0.1885,0.1874,0.1883,0.1898,0.1967,0.1969,0.197,0.1962,0.1964,0.1966,0,0,0,0,0,0,0.1615,0.1654,0.166,0.1692,0.1717,0.1753,0.1768,0.1777,0.1804,0.1803,0.1827,0.1835,0.1869,0.1886,0.1874,0.193,0.1926,0.193,0.1917,0.1919,0.192,0.1916,0.1881,0,0,0,0,0,0.1616,0.164,0.1673,0.1699,0.1711,0.1737,0.1753,0.1766,0.1793,0.1804,0.1828,0.1856,0.1884,0.1902,0.193,0.1965,0.1975,0.198,0.1981,0.1982,0.1985,0.2007,0.2011,0.1976,0.1976,0.1976,0,0,0.1618,0.1642,0.1656,0.1697,0.1718,0.1744,0.1746,0.1773,0.1793,0.1809,0.1843,0.1862,0.1894,0.1929,0.1946,0.1945,0.1997,0.1984,0.1984,0.1987,0.2009,0.2012,0.2015,0.1977,0.1977,0.1977,0,0,0.1635,0.1655,0.1679,0.1701,0.1732,0.175,0.1756,0.179,0.1803,0.1837,0.185,0.1875,0.1923,0.1946,0.1964,0.1992,0.2001,0.2,0.2007,0.2028,0.2031,0.2034,0.2045,0.2049,0.2003,0.2003,0.2003,0,0.1634,0.1672,0.1691,0.1718,0.1736,0.1751,0.1777,0.1797,0.1836,0.185,0.1848,0.191,0.1932,0.1974,0.1981,0.1994,0.2003,0.1996,0.2029,0.2032,0.2034,0.2046,0.205,0.2003,0.2003,0.2003,0.2003,0,0.1671,0.1697,0.1713,0.1751,0.1771,0.1797,0.1821,0.184,0.1851,0.1869,0.1906,0.1933,0.1968,0.1979,0.199,0.2023,0.2022,0.2024,0.2021,0.2037,0.2049,0.2053,0.2002,0.2002,0.2003,0.2003,0,0,0.1681,0.1729,0.1735,0.1753,0.1789,0.1811,0.1839,0.1872,0.1888,0.1915,0.1941,0.1982,0.1985,0.2005,0.2019,0.2037,0.206,0.2038,0.2039,0.2042,0.2101,0.21,0.2104,0.2066,0.2067,0.2067,0.2099,0,0.1704,0.1753,0.1771,0.1812,0.1838,0.1853,0.1878,0.1904,0.1922,0.1948,0.1969,0.1998,0.1999,0.2011,0.203,0.2053,0.2072,0.2051,0.2091,0.2092,0.2084,0.211,0.2109,0.2137,0.2103,0.2104,0.2104,0,0.1737,0.1764,0.1808,0.1843,0.1854,0.1876,0.1909,0.1933,0.1964,0.1976,0.1999,0.2012,0.2044,0.2038,0.2083,0.2068,0.2086,0.21,0.2102,0.2107,0.21,0.2118,0.2146,0.2151,0.2111,0.2111,0.211,0,0.1743,0.179,0.1823,0.1837,0.1878,0.1894,0.1912,0.1942,0.1961,0.1991,0.2004,0.2037,0.2055,0.2081,0.2103,0.2096,0.2147,0.2142,0.2159,0.2159,0.217,0.217,0.2204,0.2179,0.2179,0.2179,0.2179,0,0.1767,0.1794,0.1826,0.1846,0.1877,0.1898,0.1929,0.1948,0.1975,0.2,0.2015,0.2039,0.2067,0.2095,0.2112,0.2148,0.2156,0.2168,0.2173,0.2167,0.2166,0.218,0.218,0.218,0.218,0.2179,0.2179,0,0.1779,0.1801,0.1838,0.1874,0.1884,0.1905,0.1937,0.1958,0.1977,0.2009,0.2018,0.2049,0.2083,0.2107,0.2151,0.2163,0.2202,0.2206,0.2192,0.2194,0.2211,0.2209,0.2256,0.2264,0.2233,0.2233,0.2233,0,0.1793,0.1814,0.1852,0.187,0.1888,0.1916,0.1937,0.1959,0.198,0.2017,0.2035,0.2069,0.2099,0.2152,0.2179,0.2213,0.2219,0.2233,0.2225,0.222,0.2222,0.2221,0.2224,0.2235,0.2235,0.2235,0.2236,0,0.1818,0.1828,0.1856,0.1888,0.1912,0.1938,0.1965,0.1979,0.2007,0.203,0.2065,0.2087,0.2132,0.2168,0.2205,0.2225,0.2236,0.2238,0.2244,0.224,0.2232,0.2238,0.2197,0.2237,0.2237,0.2237,0.2237,0.2237,0.1832,0.1852,0.1883,0.1914,0.1937,0.1962,0.1984,0.2006,0.2035,0.2073,0.2085,0.2122,0.2154,0.2205,0.2226,0.2256,0.2255,0.2264,0.2266,0.2268,0.2269,0.2225,0.2262,0.2262,0.2262,0.2262,0.2262,0,0.1859,0.188,0.1908,0.1945,0.1971,0.1977,0.2008,0.2029,0.2061,0.209,0.2118,0.2159,0.2194,0.2224,0.226,0.2279,0.2285,0.2288,0.2287,0.2292,0.2266,0.2258,0.2282,0.2282,0.2282,0.2282,0.2282,0.2282,0.1876,0.1911,0.1925,0.1972,0.1993,0.2028,0.2045,0.207,0.2093,0.2138,0.2166,0.2185,0.2216,0.2255,0.2287,0.2295,0.2309,0.2311,0.2321,0.2296,0.2294,0.2292,0.2284,0.2313,0.2313,0.2345,0.2345,0.2345]}]]